Location: Unspecified
(43.4680°N, 87.1740°E)
Time: 03:40:25
(UTC+00:00)

SJ 16-02 - Pass Details

Date: 17 April 2021
Orbit: 605 x 617 km, 75.0° (Epoch: 17 May)

Event Time Altitude Azimuth Distance (km) Brightness Sun altitude
Exits shadow 20:27:26 49° 3° (N) 795 2.1 -27.5°
Drops below altitude 10° 20:30:45 10° 16° (NNE) 1,985 4.8 -27.1°
Sets 20:33:01 0° 18° (NNE) 2,896 5.9 -26.8°
